CW3847 La Orotava ES current weather conditions

sailwx.info

Wind from 342 at 4 knots gusting 6

Air temperature 17.2° C
Dewpoint 15.4° C

Last reported at 2015-Apr-27 09:48 UTC.
Time now 2015-Apr-27 10:40 UTC

Location: N 28°23' W 016°31'.
View on Google Maps.

See reports from other nearby stations

  
Tides and Currents Weather Stations Pressure Air Temp Water Temp Dewpoint Dewpoint Depression Visibility Wind Speed Wind Dir Waves Ship Positions
date/time (UTC)wind fromknots sea level pressurealtimeterstation pressurevisibilityair tempwater tempwave heightnotes
2015-Apr-27 09:48 342 4 gusting 6 17.2
2015-Apr-27 09:08 341 2 gusting 2 17.8
2015-Apr-27 08:38 013 1 gusting 2 18.3
2015-Apr-27 08:28 034 1 gusting 2 18.3
2015-Apr-27 08:18 355 0 gusting 2 17.8
2015-Apr-27 08:08 336 0 gusting 2 17.8
2015-Apr-27 07:58 355 17.8
2015-Apr-27 07:38 026 0 gusting 1 17.2
2015-Apr-27 06:58 152 0 gusting 0 16.7
2015-Apr-27 06:48 152 0 gusting 2 16.7
2015-Apr-27 06:28 178 1 gusting 2 16.7
2015-Apr-27 06:08 202 0 gusting 1 16.7
2015-Apr-27 05:58 230 0 gusting 1 16.1
2015-Apr-27 05:28 238 16.7
2015-Apr-27 05:18 238 0 gusting 0 16.7
2015-Apr-27 04:58 226 0 gusting 1 16.7
2015-Apr-27 04:48 225 0 gusting 0 16.7
2015-Apr-27 04:38 225 1 gusting 1 16.7
2015-Apr-27 04:18 225 16.7
2015-Apr-27 04:08 225 1 gusting 2 16.7
2015-Apr-27 03:58 177 1 gusting 2 16.1
2015-Apr-27 03:48 173 16.1
2015-Apr-27 03:38 173 16.1
2015-Apr-27 03:18 173 16.1
2015-Apr-27 03:08 173 1 gusting 1 15.6
2015-Apr-27 02:38 180 2 gusting 4 15.0
2015-Apr-27 02:28 177 1 gusting 2 15.6
2015-Apr-27 02:18 177 1 gusting 2 15.6
2015-Apr-27 02:08 177 1 gusting 2 15.6
2015-Apr-27 01:58 177 0 gusting 1 15.6
2015-Apr-27 01:48 177 1 gusting 2 15.6
2015-Apr-27 01:28 177 0 gusting 1 15.6
2015-Apr-27 01:08 177 15.6
2015-Apr-27 00:58 177 0 gusting 1 15.6
2015-Apr-27 00:48 194 1 gusting 3 15.6
2015-Apr-27 00:38 186 1 gusting 3 15.6
2015-Apr-27 00:28 193 2 gusting 2 15.6
2015-Apr-27 00:18 187 1 gusting 2 15.6
2015-Apr-26 23:48 226 1 gusting 2 16.1
2015-Apr-26 23:38 215 2 gusting 2 16.1
2015-Apr-26 23:28 219 2 gusting 2 16.1
2015-Apr-26 23:18 261 16.7
2015-Apr-26 23:08 268 2 gusting 2 16.7
2015-Apr-26 22:48 250 1 gusting 2 16.7
2015-Apr-26 22:38 315 1 gusting 2 16.7
2015-Apr-26 22:18 335 16.7
2015-Apr-26 22:08 335 0 gusting 2 16.7
2015-Apr-26 21:58 355 1 gusting 2 16.7
2015-Apr-26 21:28 329 1 gusting 1 17.2
2015-Apr-26 21:18 329 0 gusting 1 17.2
2015-Apr-26 21:08 329 0 gusting 1 17.2
2015-Apr-26 20:58 329 1 gusting 2 17.2
2015-Apr-26 20:48 330 1 gusting 1 17.2
2015-Apr-26 20:28 321 0 gusting 2 17.8
2015-Apr-26 20:18 329 1 gusting 2 17.8
2015-Apr-26 19:58 341 18.3
2015-Apr-26 19:48 348 2 gusting 2 18.3
2015-Apr-26 19:38 025 0 gusting 1 18.3
2015-Apr-26 18:58 355 2 gusting 2 18.9
2015-Apr-26 18:48 009 1 gusting 2 18.9
2015-Apr-26 18:38 009 2 gusting 3 18.9
2015-Apr-26 18:28 334 1 gusting 4 19.4
2015-Apr-26 17:48 060 20.0
2015-Apr-26 17:38 010 2 gusting 3 20.0
2015-Apr-26 17:28 019 1 gusting 6 20.6
2015-Apr-26 17:18 360 4 gusting 6 20.6
2015-Apr-26 17:08 005 2 gusting 6 20.6
2015-Apr-26 16:58 355 2 gusting 6 20.6
2015-Apr-26 16:48 028 4 gusting 4 20.6
2015-Apr-26 16:38 323 4 gusting 6 20.6
2015-Apr-26 16:28 022 3 gusting 4 20.6
2015-Apr-26 16:18 030 1 gusting 7 20.6
2015-Apr-26 16:08 344 2 gusting 6 20.6
2015-Apr-26 15:58 355 6 gusting 6 20.6
2015-Apr-26 15:48 329 4 gusting 4 20.6
2015-Apr-26 15:38 027 2 gusting 6 20.6
2015-Apr-26 15:08 024 1 gusting 7 20.6
2015-Apr-26 14:48 313 6 gusting 7 20.6
2015-Apr-26 14:28 005 2 gusting 5 20.0
2015-Apr-26 14:08 344 4 gusting 8 20.0
2015-Apr-26 13:58 360 2 gusting 8 20.0
2015-Apr-26 13:48 355 4 gusting 7 20.6
2015-Apr-26 13:18 339 2 gusting 3 20.6
2015-Apr-26 12:58 355 2 gusting 6 20.0
2015-Apr-26 12:28 042 2 gusting 4 19.4
2015-Apr-26 12:08 360 2 gusting 7 19.4
2015-Apr-26 11:58 025 3 gusting 7 19.4
2015-Apr-26 11:48 005 4 gusting 6 19.4
2015-Apr-26 11:38 348 2 gusting 6 19.4
2015-Apr-26 11:28 318 4 gusting 6 19.4
2015-Apr-26 11:18 038 2 gusting 3 19.4
2015-Apr-26 11:08 360 2 gusting 4 19.4
2015-Apr-26 10:38 025 2 gusting 3 18.9
2015-Apr-26 10:28 348 3 gusting 5 18.3
2015-Apr-26 10:18 340 2 gusting 6 18.3
2015-Apr-26 09:48 323 2 gusting 2 17.8
2015-Apr-26 09:38 336 2 gusting 4 17.8
2015-Apr-26 09:28 061 2 gusting 3 17.8
2015-Apr-26 09:08 329 0 gusting 3 17.8
2015-Apr-26 08:48 355 2 gusting 2 17.8
2015-Apr-26 08:38 310 2 gusting 2 17.8
2015-Apr-26 08:28 290 2 gusting 2 17.8
2015-Apr-26 08:18 172 17.2
2015-Apr-26 07:58 173 1 gusting 3 15.0
2015-Apr-26 07:48 173 1 gusting 2 14.4
2015-Apr-26 07:38 169 0 gusting 2 13.9
2015-Apr-26 07:18 182 3 gusting 4 13.3
2015-Apr-26 06:58 153 3 gusting 5 13.3
2015-Apr-26 06:48 165 3 gusting 4 12.8
2015-Apr-26 06:38 178 2 gusting 4 12.8
2015-Apr-26 06:28 167 3 gusting 4 13.3
2015-Apr-26 06:18 161 5 gusting 5 13.3
2015-Apr-26 05:58 165 4 gusting 4 13.3
2015-Apr-26 05:48 163 2 gusting 4 13.3
2015-Apr-26 05:28 177 2 gusting 3 12.8
2015-Apr-26 05:18 171 3 gusting 3 12.8
2015-Apr-26 05:08 169 1 gusting 3 12.8
2015-Apr-26 04:58 170 2 gusting 3 12.8
2015-Apr-26 04:48 169 1 gusting 3 13.3
2015-Apr-26 04:38 173 1 gusting 2 13.3
2015-Apr-26 04:18 168 1 gusting 3 13.3
2015-Apr-26 04:08 173 3 gusting 3 13.3
2015-Apr-26 03:58 166 2 gusting 3 13.3
2015-Apr-26 03:48 166 2 gusting 3 13.3
2015-Apr-26 03:38 168 2 gusting 3 13.3
2015-Apr-26 03:28 169 3 gusting 3 13.3
2015-Apr-26 03:08 156 2 gusting 4 13.9
2015-Apr-26 02:38 179 2 gusting 3 14.4
2015-Apr-26 02:08 167 2 gusting 4 15.0
2015-Apr-26 01:58 165 2 gusting 3 15.0
2015-Apr-26 01:28 167 3 gusting 6 14.4
2015-Apr-26 01:08 178 3 gusting 4 14.4
2015-Apr-26 00:58 167 4 gusting 5 14.4
2015-Apr-26 00:48 175 1 gusting 5 14.4
2015-Apr-26 00:38 177 14.4
2015-Apr-26 00:28 174 6 gusting 6 14.4
2015-Apr-26 00:08 178 2 gusting 6 15.0
2015-Apr-25 23:58 174 2 gusting 3 15.0
2015-Apr-25 23:48 189 2 gusting 3 15.0
2015-Apr-25 23:38 167 2 gusting 5 15.0
2015-Apr-25 23:18 144 3 gusting 7 15.0
2015-Apr-25 23:08 167 4 gusting 4 15.0
2015-Apr-25 22:58 178 3 gusting 6 15.0
2015-Apr-25 22:48 173 1 gusting 2 15.0
2015-Apr-25 22:38 171 1 gusting 3 15.0
2015-Apr-25 22:18 178 3 gusting 3 15.6
2015-Apr-25 22:08 195 2 gusting 5 15.6
2015-Apr-25 21:58 177 2 gusting 4 15.6
2015-Apr-25 21:48 188 2 gusting 5 15.6
2015-Apr-25 21:28 171 2 gusting 3 16.1
2015-Apr-25 21:18 169 2 gusting 5 16.1
2015-Apr-25 21:08 172 3 gusting 6 16.1
2015-Apr-25 20:58 155 1 gusting 3 16.1
2015-Apr-25 20:48 184 2 gusting 5 16.1
2015-Apr-25 20:38 172 3 gusting 6 16.1
2015-Apr-25 20:28 155 6 gusting 6 16.1
2015-Apr-25 20:18 219 2 gusting 2 16.7
2015-Apr-25 20:08 324 16.7
2015-Apr-25 19:48 336 2 gusting 2 16.7
2015-Apr-25 19:38 355 2 gusting 2 17.2
2015-Apr-25 19:28 346 2 gusting 2 17.2
2015-Apr-25 19:18 340 0 gusting 1 17.2
2015-Apr-25 19:08 338 1 gusting 1 17.2
2015-Apr-25 18:58 338 17.2
2015-Apr-25 18:48 338 17.2
2015-Apr-25 18:38 332 1 gusting 2 17.2
2015-Apr-25 18:18 297 1 gusting 2 17.2
2015-Apr-25 17:58 302 2 gusting 2 17.2
2015-Apr-25 17:48 327 3 gusting 3 17.2
2015-Apr-25 17:28 355 2 gusting 3 17.2
2015-Apr-25 17:08 013 0 gusting 2 17.8
2015-Apr-25 16:58 348 1 gusting 3 17.8
2015-Apr-25 16:48 333 0 gusting 2 17.8
2015-Apr-25 16:38 336 1 gusting 2 17.8
2015-Apr-25 16:28 349 1 gusting 2 17.8
2015-Apr-25 16:08 034 1 gusting 3 17.8
2015-Apr-25 15:48 334 1 gusting 3 18.3
2015-Apr-25 15:18 274 0 gusting 6 17.8
2015-Apr-25 15:08 306 2 gusting 2 17.8
2015-Apr-25 14:58 278 2 gusting 2 17.2
2015-Apr-25 14:48 315 2 gusting 3 17.2
2015-Apr-25 14:38 325 2 gusting 6 17.8
2015-Apr-25 14:18 327 1 gusting 5 17.8
2015-Apr-25 13:58 340 2 gusting 3 17.8
2015-Apr-25 13:38 355 0 gusting 2 17.8
2015-Apr-25 13:08 303 1 gusting 2 17.8
2015-Apr-25 12:58 307 0 gusting 2 17.8
2015-Apr-25 12:48 005 2 gusting 6 17.8
2015-Apr-25 12:38 347 2 gusting 4 17.8
2015-Apr-25 12:28 324 2 gusting 6 18.3
2015-Apr-25 11:58 329 4 gusting 4 18.3
2015-Apr-25 11:48 345 18.3
2015-Apr-25 11:38 315 0 gusting 2 18.3
2015-Apr-25 11:18 319 4 gusting 5 18.9
2015-Apr-25 11:08 340 2 gusting 8 19.4
2015-Apr-25 10:58 324 3 gusting 6 19.4
2015-Apr-25 10:48 030 2 gusting 6 18.9
2015-Apr-25 10:28 022 2 gusting 6 18.9
2015-Apr-25 10:18 337 2 gusting 3 18.9